Simultaneous Nadir Overpasses (SNOs) Predictions

Prediction of SNOs between NOAA-19 and TERRA Satellite Orbit:

Table of predicted SNOs for the next 14.0 days since TLE Epoch: 9/21/2019
Index Date (NOAA-19) Time (NOAA-19) Lat,Lon (NOAA-19) SZA (NOAA-19 ) Date (TERRA) Time (TERRA) Lat,Lon (TERRA) SZA (TERRA ) Distance(km) Time Diff (sec)
1 09/22/2019 12:28:02 -78.79,-163.34 100.48 09/22/2019 12:27:56 -78.76,-163.30 100.50 2.71 6
2 09/24/2019 18:01:27 78.78, -66.53 80.41 09/24/2019 18:01:39 78.78, -66.62 80.41 2.21 12
3 09/24/2019 18:52:19 -78.57, 102.21 99.64 09/24/2019 18:51:09 -78.67, 100.37 99.74 41.87 70
4 09/26/2019 23:34:48 -78.79, 30.14 98.70 09/26/2019 23:35:23 -78.81, 30.10 98.67 3.25 35
5 09/27/2019 00:25:50 78.78,-162.60 81.32 09/27/2019 00:24:50 78.77,-162.52 81.29 2.62 60
6 09/29/2019 05:08:13 78.82, 126.63 82.20 09/29/2019 05:09:06 78.82, 126.73 82.23 2.11 53
7 09/29/2019 05:59:11 -78.77, -65.78 97.80 09/29/2019 05:58:34 -78.79, -65.80 97.80 2.27 37
8 10/01/2019 10:41:39 -78.96,-137.67 96.88 10/01/2019 10:42:51 -78.81,-136.79 96.91 24.95 72
9 10/01/2019 11:32:35 78.80, 30.79 83.10 10/01/2019 11:32:17 78.80, 30.79 83.09 0.28 18
10 10/03/2019 17:05:58 -78.82, 127.39 96.02 10/03/2019 17:06:01 -78.83, 127.51 96.00 2.87 3




NCC Satellite Simultaneous Nadir Overpasses (SNOs) Prediction Service
